Regional Weather Roundup
Issued by NWS Cleveland, OH

Home | Current Version | Previous Version | Text Only | Print | Product List | Glossary Off
Versions: 1 2 3 4 5 6 7 8 9 10 11 12 13 14 15 16 17 18 19 20 21 22 23 24 25 26 27 28 29 30 31 32 33 34 35 36 37 38 39 40 41 42 43 44 45 46 47 48 49 50

000
ASUS41 KCLE 231612
RWRCLE
OHIO REGIONAL WEATHER ROUNDUP
NATIONAL WEATHER SERVICE WILMINGTON, OH
1200 PM EDT SUN APR 23 2017

NOTE: "FAIR" INDICATES FEW OR NO CLOUDS BELOW 12,000 FEET WITH NO
SIGNIFICANT WEATHER AND/OR OBSTRUCTIONS TO VISIBILITY.

OHZ001>008-015>018-024>027-034-035-043-044-231700-
   NORTHWEST OHIO

CITY           SKY/WX    TMP DP  RH WIND       PRES   REMARKS
DEFIANCE       FAIR      58  32  37 NE10      30.11F
FINDLAY        FAIR      60  34  37 NE12      30.09F
TOLEDO EXPRESS FAIR      60  25  26 VRB7      30.11F
TOLEDO EXEC    FAIR      59  36  42 NE8       30.13S
LIMA           FAIR      59  38  45 E10       30.09S
$$

OHZ009>014-019>023-028>033-038-089-231700-
   NORTHEAST OHIO

CITY           SKY/WX    TMP DP  RH WIND       PRES   REMARKS
CLE-HOPKINS    FAIR      61  33  35 NE6       30.12F
CLE-LAKEFRONT  FAIR      52  43  71 N6        30.10F
CUY CO. ARPT   NOT AVBL
LORAIN-ELYRIA  FAIR      59  32  36 CALM      30.11F
ASHTABULA      FAIR      58  34  40 S3        30.12F
AKRON-CANTON   FAIR      59  33  37 VRB3      30.10F
WOOSTER        FAIR      58  36  43 E9        30.11S
MANSFIELD      FAIR      58  34  40 E9        30.09F
YOUNGSTOWN     FAIR      58  34  40 VRB3      30.10F
$$

OHZ042-051>053-060>062-070>072-077>081-231700-
  SOUTHWEST OHIO

CITY           SKY/WX    TMP DP  RH WIND       PRES   REMARKS
CINC-COVINGTON PTSUNNY   57  38  48 NE17      30.02F
CINC-LUNKEN    FAIR      58  43  57 N13G23    30.04F
HAMILTON       FAIR      60  41  49 NE10G20   30.06F
DAYTON         FAIR      60  34  37 E12       30.08F
WRIGHT-PAT AFB FAIR      61  33  34 NE12G20   30.07F
DAYTON GENERAL FAIR      58  37  45 E10G20    30.06F
WILMINGTON     FAIR      55  40  56 NE10      30.05F
$$

OHZ036-037-039>041-045>050-054>059-063>069-073>076-082>088-231700-
  CENTRAL AND SOUTHEAST OHIO

CITY           SKY/WX    TMP DP  RH WIND       PRES   REMARKS
COLUMBUS       FAIR      61  37  41 E10G21    30.06F
OSU AIRPORT    FAIR      60  35  39 E9        30.08S
BOLTON FIELD   SUNNY     57  37  47 NE9       30.07F
RICKENBACK AFB FAIR      58  38  48 NE14      30.06F
NEWARK         FAIR      61  34  36 E13G20    30.07F
MARION         FAIR      62  32  32 NE12      30.09S
LANCASTER      FAIR      62  37  39 E13       30.06F
ZANESVILLE     FAIR      61  37  41 E9        30.08S
NEW PHILLY     FAIR      59  35  40 E7G17     30.11R
$$




USA.gov is the U.S. government's official web portal to all federal, state and local government web resources and services.